This demonstration page uses our WeatherBlox Daily Observations layout. Learn more.

Left ArrowRight Arrow

39.92423, -83.80882

Hourly Observations for January 10, 2018

Temp ( °F °C ) Dew Point ( °F °C ) Humidity (%) Winds ( mph kmh ) Pressure ( in mb ) Visibility ( mi km ) Precip ( " mm )
1:22 am 01:22 Mostly Cloudy with Mist and Fog 30 -1 30 -1 100 100 SE 8 13 30.30 1026 6 10 N/A
1:56 am 01:56 Cloudy 33 0.6 31 -0.6 92 92 ESE 9 15 30.26 1025 8 13 N/A
2:52 am 02:52 Cloudy 34 1 32 undefined 93 93 SE 13 20 30.27 1025 8 13 N/A
2:56 am 02:56 Cloudy 34 1.1 32 undefined 92 92 SE 12 19 30.23 1024 8 13 N/A
3:56 am 03:56 Cloudy with Mist and Fog 34 1.1 33 0.6 97 97 SE 10 17 30.22 1024 4 6 N/A
4:56 am 04:56 Cloudy with Light Rain 33 0.6 33 0.6 100 100 ESE 10 17 30.22 1023 4 6 N/A
5:11 am 05:11 Cloudy with Light Wintry Mix 34 1 34 1 100 100 ESE 9 15 30.24 1024 4 6 N/A
5:56 am 05:56 Cloudy with Light Rain 34 1.1 33 0.6 97 97 SE 13 20 30.20 1023 4 6 N/A
6:08 am 06:08 Cloudy with Light Wintry Mix 34 1 34 1 100 100 SE 10 17 30.24 1024 4 6 N/A
6:17 am 06:17 Cloudy with Light Rain 34 1 34 1 100 100 SE 10 17 30.24 1024 4 6 N/A
6:25 am 06:25 Cloudy with Light Wintry Mix 34 1 34 1 100 100 SE 10 17 30.21 1023 4 6 N/A
6:38 am 06:38 Cloudy with Mist and Fog 34 1 34 1 100 100 SE 10 17 30.21 1023 5 8 N/A
6:47 am 06:47 Cloudy with Mist and Fog 36 2 34 1 93 93 SE 10 17 30.21 1023 6 10 N/A
6:56 am 06:56 Cloudy with Mist and Fog 35 1.7 34 1.1 96 96 ESE 8 13 30.20 1023 6 10 N/A
7:56 am 07:56 Cloudy with Mist and Fog 35 1.7 34 1.1 96 96 SE 12 19 30.19 1022 6 10 N/A
8:03 am 08:03 Cloudy with Light Rain 36 2 34 1 93 93 SE 12 19 30.21 1023 6 10 N/A
8:10 am 08:10 Cloudy with Light Rain 36 2 34 1 93 93 SE 12 19 30.21 1023 6 10 N/A
8:56 am 08:56 Cloudy with Mist and Fog 36 2.2 35 1.7 97 97 SE 9 15 30.18 1022 5 8 N/A
9:56 am 09:56 Cloudy 39 3.9 38 3.3 96 96 SSE 10 17 30.18 1022 10 16 N/A
10:56 am 10:56 Cloudy 42 5.6 39 3.9 89 89 SSE 9 15 30.17 1022 10 16 N/A
11:56 am 11:56 Cloudy 45 7.2 42 5.6 90 90 S 6 9 30.14 1021 10 16 N/A
12:21 pm 12:21 Cloudy 46 8 43 6 87 87 SSE 5 7 30.12 1020 10 16 N/A
12:28 pm 12:28 Cloudy 46 8 45 7 93 93 SSE 6 9 30.12 1020 10 16 N/A
12:56 pm 12:56 Mostly Cloudy 52 11.1 47 8.3 83 83 S 9 15 30.09 1019 10 16 N/A
1:56 pm 13:56 Sunny 55 12.8 49 9.4 80 80 S 8 13 30.05 1018 10 16 N/A
2:14 pm 14:14 Mostly Cloudy 55 13 48 9 77 77 S 7 11 30.03 1017 10 16 N/A
2:52 pm 14:52 Cloudy 55 13 50 10 82 82 SSW 9 15 30.03 1017 10 16 N/A
2:56 pm 14:56 Cloudy 57 13.9 50 10 78 78 SSW 6 9 30.04 1017 10 16 N/A
3:03 pm 15:03 Cloudy 57 14 50 10 77 77 SSW 9 15 30.03 1017 10 16 N/A
3:47 pm 15:47 Cloudy 55 13 50 10 82 82 SW 8 13 30.03 1017 10 16 N/A
3:56 pm 15:56 Cloudy 55 12.8 50 10 83 83 SW 6 9 30.05 1018 10 16 N/A
4:56 pm 16:56 Cloudy 55 12.8 50 10 83 83 SSW 9 15 30.06 1018 10 16 N/A
5:16 pm 17:16 Cloudy 54 12 50 10 88 88 SSW 7 11 30.03 1017 10 16 N/A
5:56 pm 17:56 Cloudy 52 11.1 48 8.9 86 86 SSE 5 7 30.06 1018 10 16 N/A
6:56 pm 18:56 Cloudy 51 10.6 48 8.9 89 89 S 7 11 30.06 1018 10 16 N/A
7:56 pm 19:56 Cloudy 54 12.2 49 9.4 83 83 S 9 15 30.05 1018 10 16 N/A
8:56 pm 20:56 Cloudy 54 12.2 48 8.9 80 80 SSE 7 11 30.05 1018 10 16 N/A
9:56 pm 21:56 Cloudy 54 12.2 48 8.9 80 80 S 9 15 30.04 1017 10 16 N/A
10:56 pm 22:56 Mostly Cloudy 55 12.8 48 8.9 77 77 S 8 13 30.04 1017 10 16 N/A
11:56 pm 23:56 Cloudy 55 12.8 49 9.4 80 80 S 8 13 30.03 1017 10 16 N/A

Powered by AerisWeather